Weather Service Report


002 
ASUS45 KSLC 301910
RWRUT 

UTAH REGIONAL WEATHER ROUNDUP
NATIONAL WEATHER SERVICE SALT LAKE CITY UT
1200 PM MST MON NOV 30 2020

UTZ001>011-023>025-302000-

NORTHERN UTAH
  
CITY           SKY/WX    TMP DP  RH WIND       PRES   REMARKS
BRIGHAM CITY   SUNNY     36  22  57 CALM      30.33F                  
DUGWAY         MOSUNNY   40  19  43 NW3       30.31F                  
HILL AFB       MOSUNNY   40  18  40 S5        30.29F                  
LOGAN          SUNNY     33  21  61 CALM      30.29F                  
OGDEN          SUNNY     41  17  38 NW3       30.30F                  
SALT LAKE CITY MOSUNNY   38  23  55 NW3       30.31F                  
TOOELE VALLEY  SUNNY     36  27  69 CALM      30.32F                  
WENDOVER       SUNNY     31  18  58 E5        30.32F WCI  26          
HEBER CITY       N/A     34  14  44 CALM      30.27F                  
WEST JORDAN    SUNNY     38  24  57 CALM      30.31F                  

$$

UTZ011>015-024>027-302000-

CENTRAL/NORTHEAST UTAH
  
CITY           SKY/WX    TMP DP  RH WIND       PRES   REMARKS
PROVO AIRPORT  MOSUNNY   34  22  61 CALM      30.32F                  
MOAB/CANYONLAN SUNNY     41  13  31 NW3       30.36F                  
DELTA          MOSUNNY   37  19  48 SE7       30.32F WCI  32          
MANTI            N/A     37  12  36 CALM      30.32F                  
PRICE          SUNNY     39   7  26 VRB5      30.35F                  
RICHFIELD      SUNNY     46  10  23 S9        30.30F                  
ROOSEVELT      SUNNY     32  12  43 E3        30.38F                  
DUCHESNE       CLEAR     34   5  29 SE5       30.32F WCI  30          
VERNAL         SUNNY     32  14  47 S6        30.35F WCI  26          

$$

UTZ013>016-019>022-027-302000-

SOUTHERN UTAH
  
CITY           SKY/WX    TMP DP  RH WIND       PRES   REMARKS
BRYCE CANYON   SUNNY     39   7  26 SE8       30.36F WCI  33          
CEDAR CITY     SUNNY     42  14  32 CALM      30.32F                  
MILFORD        SUNNY     42  16  34 S14       30.29F                  
PANGUITCH      SUNNY     34  12  40 CALM      30.37F                  
ST GEORGE      CLEAR     46  13  26 CALM      30.35F                  
HANKSVILLE     SUNNY     36   7  30 CALM      30.42F                  
KANAB          SUNNY     52   9  17 NE3G13    30.38F                  
BLANDING         N/A     41  12  30 S5        30.45F                  

$$

REGIONAL REPORTS     COLORADO/ARIZONA
  
CITY           SKY/WX    TMP DP  RH WIND       PRES   REMARKS
CRAIG, CO      SUNNY     40  11  30 E8        30.31F WCI  34          
GRAND JUNCTION SUNNY     40  12  32 SE3       30.36F                  
RIFLE, CO      SUNNY     37  11  34 S3        30.36F                  
MONTROSE, CO   SUNNY     39  19  44 NW5       30.38F                  
CORTEZ, CO     SUNNY     45  17  32 S8        30.36F                  
COLORADO CITY    N/A     54  10  17 CALM      30.37F                  
PAGE, AZ       SUNNY     44  14  29 N3        30.37F                  
GRAND CANYON   PTSUNNY   49  13  23 VRB3      30.34F                  
KINGMAN, AZ    SUNNY     60  11  14 N6        30.27F                  
FLAGSTAFF, AZ  MOSUNNY   46  12  25 CALM      30.33F                  

$$

REGIONAL REPORTS    NEVADA/IDAHO/WYOMING
  
CITY           SKY/WX    TMP DP  RH WIND       PRES   REMARKS
LAS VEGAS, NV  MOSUNNY   58  16  19 VRB3      30.28F                  
ELY, NY        MOSUNNY   48  10  21 CALM      30.31F                  
ELKO, NV       SUNNY     35  15  44 SW3       30.27F                  
POCATELLO, ID  SUNNY     33  21  61 CALM      30.17F                  
BURLEY, ID     SUNNY     49  19  30 S20G30    30.13F                  
EVANSTON, WY   SUNNY     39   8  27 SW13      30.23F WCI  31          
ROCK SPRINGS,  SUNNY     29  11  47 CALM      30.25F                  
KEMMERER, WY   SUNNY     36   7  30 SW3       30.23F                  

$$
  

Return to Home page


Western Regional Climate Center, wrcc@dri.edu